Location: Artiguedieu
(43.5000°N, 0.5454°E)
Time: 19:30:10
(UTC+00:00)

Transit 2A - Pass Details

Date: 24 July 2021
Orbit: 594 x 964 km, 66.7° (Epoch: 28 September)

Event Time Altitude Azimuth Distance (km) Brightness Sun altitude
Rises 18:28:41 0° 310° (NW) 3,292 10.8 9.2°
Reaches altitude 10° 18:32:04 10° 288° (WNW) 2,436 12.7 8.6°
Maximum altitude 18:35:07 15° 254° (WSW) 2,160 9.4 8.1°
Drops below altitude 10° 18:38:19 10° 222° (SW) 2,554 9.0 7.5°
Sets 18:42:01 0° 200° (SSW) 3,551 9.4 6.9°
